Weather Roundup
Issued by NWS

Home | Current Version | Previous Version | Graphics & Text | Print | Product List | Glossary Off
Versions: 1 2 3 4 5 6 7 8 9 10 11 12 13 14 15 16 17 18 19 20 21 22 23 24 25 26 27 28 29 30 31 32 33 34 35 36 37 38 39 40 41 42 43 44 45 46 47 48 49 50

000
NZUS93 KARX 200110
HRRWXR

CURRENT HOURLY OBSERVATIONS ACROSS
MUCH OF THE UPPER MISSISSIPPI VALLEY
NATIONAL WEATHER SERVICE LA CROSSE WI
800 PM CDT SAT AUG 19 2017


...SOUTHEAST MINNESOTA...


CITY           SKY/WX    TMP DP  RH WIND       PRES   REMARKS
ROCHESTER      CLEAR     67  63  87 S6        29.93S
ROCHESTER/MAYO FAIR      74  62  65 S3        29.92S
WINONA         CLEAR     73  63  68 CALM      29.92R HAZE
AUSTIN         CLEAR     72  64  78 CALM      29.92S
ALBERT LEA     CLEAR     75  64  69 S5        29.91S
DODGE CENTER   CLEAR     68  63  83 S5        29.93R
PRESTON        CLEAR     70  61  71 CALM      29.94S
OWATONNA       CLEAR     72  64  78 S5        29.91R
FARIBAULT      CLEAR     73  64  73 CALM      29.90S
$$

...ELSEWHERE IN MINNESOTA...


CITY           SKY/WX    TMP DP  RH WIND       PRES   REMARKS
MINNEAPOLIS    PTCLDY    77  62  59 SW7       29.88S
INTNL FALLS    CLEAR     69  59  70 SE3       29.79S
DULUTH         PTCLDY    71  62  73 SW8       29.87R
RED WING       CLEAR     75  63  64 CALM      29.88S
REDWOOD FALLS  CLEAR     72  66  81 SE8       29.84F
MANKATO        CLEAR     72  65  78 S6        29.89S
WORTHINGTON    MOCLDY    73  65  75 SE7       29.87F
FAIRMONT       CLEAR     72  66  81 SE7       29.89S
$$

...SOUTHWEST WISCONSIN...


CITY           SKY/WX    TMP DP  RH WIND       PRES   REMARKS
LA CROSSE      CLEAR     77  60  55 SW6       29.90S
PRAIRIE DU CHI CLEAR     73  60  65 CALM      29.92S
BOSCOBEL       CLEAR     73  64  73 CALM      29.93R
LONE ROCK      CLEAR     70  64  81 CALM      29.93S
PLATTEVILLE    CLEAR     71  64  77 S5        29.96R
FORT MC COY    CLEAR     68  64  84 CALM      29.93S
CAMP DOUGLAS   CLEAR     66  61  81 CALM      29.93S
MAUSTON-NEW LI CLEAR     69  63  81 CALM      29.93S
VIROQUA        FAIR      72  60  65 S3        29.95R
WIS DELLS      CLEAR     70  61  72 CALM      29.94S
$$

...ELSEWHERE IN WISCONSIN...


CITY           SKY/WX    TMP DP  RH WIND       PRES   REMARKS
MILWAUKEE      CLEAR     77  61  57 SW6       29.94S
MADISON        PTCLDY    74  62  66 SW3       29.94S
GREEN BAY      CLEAR     69  65  86 SW5       29.90S
EAU CLAIRE     CLEAR     74  61  63 SW3       29.90S
BLACK RVR FLS  FAIR      70  63  77 CALM      29.92S
MEDFORD        CLEAR     66  59  76 S3        29.93S
WAUSAU         CLEAR     71  59  65 SW5       29.91S
WIS RAPIDS     CLEAR     70  61  73 SW3       29.94S
MARSHFIELD     CLEAR     69  59  70 SW3       29.93S
RICE LAKE      CLEAR     69  60  71 S3        29.91S
$$

...NORTHEAST IOWA...


CITY           SKY/WX    TMP DP  RH WIND       PRES   REMARKS
WATERLOO       CLEAR     73  62  68 S5        29.91S
DUBUQUE        CLEAR     70  64  81 S7        29.95S
DECORAH        CLEAR     72  63  73 CALM      29.93R
MASON CITY     CLEAR     70  64  81 S7        29.93S
CHARLES CITY   CLEAR     72  68  88 S5        29.93S
OELWEIN        PTCLDY    72  66  83 SE3       29.94R
$$

...ELSEWHERE IN IOWA...


CITY           SKY/WX    TMP DP  RH WIND       PRES   REMARKS
DES MOINES     PTCLDY    81  61  50 E5        29.89F
IOWA CITY      CLEAR     78  64  61 E5        29.93S
FORT DODGE     CLEAR     73  64  73 SE6       29.90F
MARSHALLTOWN   CLEAR     74  68  81 SE5       29.91S
CEDAR RAPIDS   CLEAR     72  65  78 SE5       29.92S
$$

...NORTHERN ILLINOIS...


CITY           SKY/WX    TMP DP  RH WIND       PRES   REMARKS
CHICAGO-OHARE  PTCLDY    76  55  48 E8        29.95S
CHICAGO-MIDWAY PTCLDY    77  54  44 E7        29.95S
MOLINE         CLEAR     73  63  70 E5        29.93S
ROCKFORD       CLEAR     73  62  68 CALM      29.96S
PEORIA         CLEAR     76  63  64 NE3       29.94S
$$

NOTE: "FAIR" INDICATES FEW OR NO CLOUDS BELOW 12,000 FEET WITH NO
SIGNIFICANT WEATHER AND/OR OBSTRUCTIONS TO VISIBILITY. WIND
SPEEDS ARE IN MILES-PER-HOUR.




USA.gov is the U.S. government's official web portal to all federal, state and local government web resources and services.